SCP
0 0 0 0 0 0 0 0 0 0 0 0 0 0 0 0 0 0 0 0 0 0 0 0 0 0 0 0 0 0 0 0 0 0 0 0 0 0 0 0 0 0 0
0 0 0 0 0 0 0 0 0 0 0 0 0 0 0 0 0 0 0 0 0 0 0 0 0 0 0 0 0 0 0 0 0 0 0 0 0 0 0 0 0 0 0
0 0 0 0 0 0 0 0 0 0 0 0 0 0 0 0 0 0 0 0 0 0 0 0 0 0 0 0 0 0 0 0 0 0 0 0 0 0 0 0 0 0 0
0 0 0 0 0 0 0 0 0 0 0 0 0 0 0 0 0 0 0 0 0 0 0 0 0 0 0 0 0 0 0 0 0 0 0 0 0 0 0 0 0 0 0
0 0 0 0 0 0 0 0 0 0 0 0 0 0 0 0 0 0 0 0 0 0 0 0 0 0 0 0 0 0 0 0 0 0 0 0 0 0 0 0 0 0 0
0 0 0 0 0 0 0 0 0 0 0 0 0 0 0 0 0 0 0 0 0 0 0 0 0 0 0 0 0 0 0 0 0 0 0 0 0 0 0 0 0 0 0
0 0 0 0 0 0 0 0 0 0 0 0 0 0 0 0 0 0 0 0 0 0 0 0 0 0 0 0 0 0 0 0 0 0 0 0 0 0 0 0 0 0 0
0 0 0 0 0 0 0 0 0 0 0 0 0 0 0 0 0 0 0 0 0 0 0 0 0 0 0 0 0 0 0 0 0 0 0 0 0 0 0 0 0 0 0
0 0 0 0 0 0 0 0 0 0 0 0 0 0 0 0 0 0 0 0 0 0 0 0 0 0 0 0 0 0 0 0 0 0 0 0 0 0 0 0 0 0 0
0 0 0 0 0 0 0 0 0 0 0 0 0 0 0 0 0 0 0 0 0 0 0 0 0 0 0 0 0 0 0 0 0 0 0 0 0 0 0 0 0 0 0
0 0 0 0 0 0 0 0 0 0 0 0 0 0 0 0 0 0 0 0 0 0 0 0 0 0 0 0 0 0 0 0 0 0 0 0 0 0 0 0 0 0 0
0 0 0 0 0 0 0 0 0 0 0 0 0 0 0 0 0 0 0 0 0 0 0 0 0 0 0 0 0 0 0 0 0 0 0 0 0 0 0 0 0 0 0
0 0 0 0 0 0 0 0 0 0 0 0 0 0 0 0 0 0 0 0 0 0 0 0 0 0 0 0 0 0 0 0 0 0 0 0 0 0 0 0 0 0 0
0 0 0 0 0 0 0 0 0 0 0 0 0 0 0 0 0 0 0 0 0 0 0 0 0 0 0 0 0 0 0 0 0 0 0 0 0 0 0 0 0 0 0
-0 0 0 0 0 0 0 0 0 0 0 0 0 0 0 0 0 0 0 0 0 0 0 0 0 0 0 0 0 0 0 0 0 0 0 0 0 0 0 0 0 0 0
0 0 0 0 0 0 0 0 0 0 0 0 0 0 0 0 0 0 0 0 0 0 0 0 0 0 0 0 0 0 0 0 0 0 0 0 0 0 0 0 0 0 0
0 0 0 0 0 0 0 0 0 0 0 0 0 0 0 0 0 0 0 0 0 0 0 0 0 0 0 0 0 0 0 0 0 0 0 0 0 0 0 0 0 0 0
0 0 0 0 0 0 0 0 0 0 0 0 0 0 0 0 0 0 0 0 0 0 0 0 0 0 0 0 0 0 0 0 0 0 0 0 0 0 0 0 0 0 0
0 0 0 0 0 0 0 0 0 0 0 0 0 0 0 0 0 0 0 0 0 0 0 0 0 0 0 0 0 0 0 0 0 0 0 0 0 0 0 0 0 0 0
0 0 0 0 0 0 0 0 0 0 0 0 0 0 0 0 0 0 0 0 0 0 0 0 0 0 0 0 0 0 0 0 0 0 0 0 0 0 0 0 0 0 0
0 0 0 0 0 0 0 0 0 0 0 0 0 0 0 0 0 0 0 0 0 0 0 0 0 0 0 0 0 0 0 0 0 0 0 0 0 0 0 0 0 0 0
0 0 0 0 0 0 0 0 0 0 0 0 0 0 0 0 0 0 0 0 0 0 0 0 0 0 0 0 0 0 0 0 0 0 0 0 0 0 0 0 0 0 0
0 0 0 0 0 0 0 0 0 0 0 0 0 0 0 0 0 0 0 0 0 0 0 0 0 0 0 0 0 0 0 0 0 0 0 0 0 0 0 0 0 0 0
0 0 0 0 0 0 0 0 0 0 0 0 0 0 0 0 0 0 0 0 0 0 0 0 0 0 0 0 0 0 0 0 0 0 0 0 0 0 0 0 0 0 0
0 0 0 0 0 0 0 0 0 0 0 0 0 0 0 0 0 0 0 0 0 0 0 0 0 0 0 0 0 0 0 0 0 0 0 0 0 0 0 0 0 0 0
0 0 0 0 0 0 0 0 0 0 0 0 0 0 0 0 0 0 0 0 0 0 0 0 0 0 0 0 0 0 0 0 0 0 0 0 0 0 0 0 0 0 0
Wind_Speed_500mb
82 74 76 76 80 78 80 77 76 78 74 77 78 76 77 72 68 66 62 59 58 55 53 49 46 46 47 43 40 39 37 35 31 31 32 33 35 35 32 29 30 26 24
77 81 80 79 83 82 83 84 83 82 80 81 80 80 78 78 74 71 69 66 65 63 59 55 52 50 52 51 49 47 45 42 37 39 38 35 36 36 34 31 28 27 31
95 90 74 81 83 87 91 91 88 86 86 86 83 82 83 83 82 83 81 75 71 69 66 61 59 56 56 57 55 53 52 50 45 43 39 15 22 19 23 23 25 30 30
99 99 90 88 87 95 93 91 91 89 89 90 93 93 92 92 88 88 86 82 78 74 72 70 67 63 60 61 59 55 57 54 54 49 51 50 45 34 28 30 31 32 34
99 102 92 96 95 92 92 96 94 92 91 91 93 97 95 93 87 85 81 82 80 79 78 77 73 71 67 65 64 61 60 59 60 57 57 52 51 53 49 43 36 40 40
89 99 100 103 106 100 96 90 96 94 93 91 89 96 92 94 93 88 81 78 75 75 79 81 80 77 73 71 68 65 64 63 63 63 62 63 62 52 56 57 54 51 48
68 76 78 87 91 98 99 95 90 93 92 93 90 90 90 92 90 84 78 74 74 77 76 74 79 80 76 74 71 70 72 69 68 66 66 66 68 66 63 59 56 56 55
59 50 48 68 70 86 98 99 98 95 93 92 94 91 88 87 87 84 76 73 74 72 68 70 71 70 72 72 73 75 75 75 75 72 69 70 70 69 71 69 68 67 64
62 63 57 49 59 67 79 95 94 93 93 88 86 92 91 86 83 79 76 73 71 70 68 67 66 64 64 65 67 73 75 76 76 75 76 76 71 70 70 69 67 66 60
61 55 60 47 38 53 57 69 88 91 87 85 85 85 88 86 80 78 77 73 70 67 66 65 63 59 59 60 64 67 67 72 73 70 74 73 76 72 71 74 69 67 76
44 56 55 62 52 38 50 57 68 84 87 87 84 81 84 86 82 80 75 70 68 69 66 62 59 57 57 60 63 63 62 62 64 65 69 70 68 70 69 75 75 76 80
40 34 38 45 59 52 43 48 59 67 73 75 77 77 78 81 82 79 74 69 66 65 65 62 60 59 59 59 60 59 60 64 67 67 65 64 63 63 70 69 77 74 76
29 24 31 39 49 52 48 45 44 51 61 61 63 66 69 72 73 72 69 67 65 65 63 62 63 62 61 59 57 59 64 62 65 61 60 58 60 61 65 73 76 71 78
34 29 26 32 43 47 46 45 45 47 50 51 52 55 56 56 58 62 66 68 68 66 66 64 62 61 59 56 54 62 59 62 58 55 55 54 58 59 59 61 65 72 68
45 40 39 39 39 42 41 43 39 39 44 47 50 51 50 53 57 61 63 65 66 66 65 63 59 55 54 55 56 58 58 56 56 58 57 58 58 56 57 61 65 64 67
61 47 44 39 36 36 37 37 37 36 38 39 37 39 42 44 47 51 55 58 61 63 63 63 60 55 48 53 53 53 55 57 56 58 56 58 58 55 63 57 62 64 63
63 52 45 35 26 25 29 32 33 35 35 35 35 36 37 38 39 41 43 44 44 44 46 50 51 46 49 49 54 52 57 53 54 57 53 55 55 55 55 61 62 64 69
54 51 45 30 20 21 24 30 32 31 30 28 28 28 28 30 32 32 32 32 34 35 37 39 40 43 48 52 51 50 52 55 57 50 51 52 52 52 54 55 60 57 57
79 52 39 39 26 26 31 34 34 32 27 22 20 20 23 26 29 28 29 31 32 32 33 34 38 43 47 51 53 57 59 55 49 50 50 50 51 47 48 53 56 55 55
75 72 54 51 45 43 43 40 35 33 29 26 25 27 28 32 35 36 37 39 39 37 39 40 41 43 43 44 47 47 47 48 48 50 44 37 35 37 41 46 54 52 43
74 77 66 66 52 49 51 47 44 41 37 35 38 42 46 48 47 44 45 44 44 44 44 43 42 41 38 35 32 31 30 29 27 23 19 25 29 34 37 39 40 45 46
63 67 65 68 65 54 53 53 51 49 48 48 51 54 52 47 44 42 42 41 40 40 37 35 34 31 29 29 27 25 24 24 25 24 29 32 32 35 37 37 37 39 39
58 56 54 58 59 57 57 58 56 52 53 55 53 50 47 44 41 40 39 38 37 35 33 29 27 25 25 24 18 16 20 21 24 24 27 26 26 27 31 28 30 32 31
42 43 45 48 47 46 47 51 51 52 51 49 47 44 41 37 34 33 32 32 30 27 23 19 17 17 15 13 17 18 19 20 22 21 22 18 18 19 23 21 22 26 28
32 36 39 42 42 41 39 40 41 42 41 40 36 31 28 27 28 26 24 20 17 15 18 17 17 16 15 15 16 17 18 19 17 17 16 16 16 17 19 19 20 22 22
24 26 29 30 31 30 29 30 30 29 29 29 26 24 24 24 22 21 22 20 12 12 10 11 11 11 10 10 11 11 11 11 12 15 14 11 12 12 15 14 15 15 15
Wind_Direction_500mb
255 252 246 243 244 243 241 239 236 234 233 233 233 235 236 235 235 236 236 236 238 239 240 241 241 242 246 250 252 252 253 252 250 253 258 269 271 274 274 268 260 252 253
262 253 250 249 245 245 245 242 240 237 236 236 237 237 239 239 240 241 240 239 238 239 240 243 244 245 249 250 250 251 252 251 244 252 258 267 266 269 272 269 256 256 256
258 258 253 250 249 246 243 243 243 240 239 239 238 239 241 243 242 240 240 239 240 242 243 244 246 245 248 251 253 253 253 254 249 247 246 249 250 273 256 253 261 252 260
250 255 252 251 250 248 247 245 245 243 242 239 240 239 240 240 241 242 242 242 241 243 245 247 248 248 248 251 253 253 253 253 250 249 248 246 253 266 274 266 268 266 268
243 249 251 247 248 251 249 245 244 244 244 242 241 242 242 246 249 250 249 248 246 246 248 247 249 250 250 251 252 251 251 252 252 248 248 246 252 255 260 267 270 271 271
242 247 251 250 252 249 249 246 243 243 244 243 242 242 244 245 246 248 250 251 250 249 248 248 249 250 252 251 253 254 253 252 252 250 247 245 246 253 256 260 264 270 273
252 250 251 253 249 243 243 244 243 243 243 242 241 242 244 244 247 250 251 252 252 249 247 246 246 249 250 252 253 254 253 252 252 252 250 249 248 251 257 264 268 268 273
257 252 256 253 252 244 242 241 240 242 242 243 241 240 244 246 247 249 251 252 253 254 253 250 250 252 253 255 256 257 258 255 253 253 253 254 251 252 255 259 264 269 270
257 251 250 257 250 246 243 240 238 239 242 242 241 240 241 243 246 248 250 252 253 254 255 254 254 253 253 256 258 258 259 259 257 255 255 255 256 256 257 258 260 266 261
268 265 244 246 253 246 243 238 237 238 240 242 243 243 242 243 245 248 250 252 254 255 255 255 254 253 254 255 255 257 258 259 259 258 259 258 259 259 260 257 253 255 264
281 271 261 239 245 251 240 235 232 234 236 239 241 243 242 243 245 248 252 254 255 257 258 259 256 254 253 255 257 260 263 265 265 262 260 262 261 263 262 265 260 253 255
289 284 256 245 240 237 241 238 233 234 236 241 243 243 244 245 247 249 251 254 258 259 260 259 257 255 254 255 258 262 266 264 266 266 263 262 265 263 263 260 267 265 266
312 294 254 253 239 234 235 234 239 241 233 233 237 238 240 244 246 249 250 255 257 258 258 258 257 256 256 256 253 259 261 262 262 263 265 263 259 261 261 262 264 271 267
308 299 280 264 250 242 237 237 242 234 225 229 233 234 236 238 241 244 248 253 256 258 258 258 258 258 257 254 257 256 259 260 259 261 262 260 261 261 265 266 267 266 271
311 298 284 270 254 241 229 224 222 221 220 223 228 231 235 238 242 244 247 252 255 257 259 261 261 259 256 252 251 256 255 255 255 257 258 261 263 265 264 264 265 266 269
298 299 284 273 259 245 227 216 216 217 218 221 225 228 231 233 238 244 249 252 255 257 256 254 253 251 247 249 247 251 249 251 253 253 259 261 263 262 266 265 270 272 272
284 290 285 264 244 227 213 210 207 205 207 210 212 219 227 234 238 241 244 247 250 251 250 248 246 243 240 241 246 245 250 253 257 261 261 257 261 265 267 269 271 267 270
280 288 284 248 228 217 207 199 200 199 201 205 214 224 231 236 237 239 243 246 246 246 246 244 244 242 241 243 243 244 246 250 256 255 258 259 260 261 264 266 269 269 273
266 273 283 248 234 233 221 214 206 205 205 211 221 228 233 237 242 243 244 246 247 245 242 238 235 234 235 238 241 244 247 248 248 250 254 259 260 264 266 268 268 265 272
265 269 265 241 242 242 232 226 224 225 219 223 234 242 250 256 254 248 244 241 238 235 233 233 232 236 239 240 244 249 253 257 257 258 258 254 257 262 265 268 271 278 272
258 259 255 249 246 241 234 229 229 229 231 232 240 242 244 245 246 246 245 243 241 238 240 238 239 241 244 244 251 255 254 251 246 244 243 247 249 253 259 263 269 271 270
263 255 248 244 246 235 232 232 234 235 234 238 240 240 244 247 251 252 251 249 249 248 249 251 252 249 240 245 245 242 245 251 252 249 252 252 260 264 265 267 273 279 279
261 252 241 230 227 228 229 230 231 231 236 238 238 242 245 247 248 249 245 243 243 242 244 244 241 234 229 233 234 233 250 259 268 273 269 276 278 281 281 285 288 289 292
241 235 228 221 220 221 222 226 228 233 235 237 238 238 239 238 232 228 229 235 237 237 233 227 216 215 225 233 219 231 241 245 253 255 264 264 275 281 284 288 292 301 305
238 232 232 221 216 220 222 225 226 229 232 233 228 223 219 216 211 207 209 212 213 207 188 187 198 209 218 228 238 241 241 243 244 257 258 269 274 279 284 291 294 292 294
234 231 230 231 219 221 228 230 232 231 225 219 214 206 201 193 186 186 168 148 152 155 162 177 194 206 208 214 219 230 235 249 269 273 280 289 288 291 297 306 311 308 312
Wind_Speed_850mb
82 74 76 76 80 78 80 77 76 78 74 77 78 76 77 72 68 66 62 59 58 55 53 49 46 46 47 43 40 39 37 35 31 31 32 33 35 35 32 29 30 26 24
77 81 80 79 83 82 83 84 83 82 80 81 80 80 78 78 74 71 69 66 65 63 59 55 52 50 52 51 49 47 45 42 37 39 38 35 36 36 34 31 28 27 31
95 90 74 81 83 87 91 91 88 86 86 86 83 82 83 83 82 83 81 75 71 69 66 61 59 56 56 57 55 53 52 50 45 43 39 15 22 19 23 23 25 30 30
99 99 90 88 87 95 93 91 91 89 89 90 93 93 92 92 88 88 86 82 78 74 72 70 67 63 60 61 59 55 57 54 54 49 51 50 45 34 28 30 31 32 34
99 102 92 96 95 92 92 96 94 92 91 91 93 97 95 93 87 85 81 82 80 79 78 77 73 71 67 65 64 61 60 59 60 57 57 52 51 53 49 43 36 40 40
89 99 100 103 106 100 96 90 96 94 93 91 89 96 92 94 93 88 81 78 75 75 79 81 80 77 73 71 68 65 64 63 63 63 62 63 62 52 56 57 54 51 48
68 76 78 87 91 98 99 95 90 93 92 93 90 90 90 92 90 84 78 74 74 77 76 74 79 80 76 74 71 70 72 69 68 66 66 66 68 66 63 59 56 56 55
59 50 48 68 70 86 98 99 98 95 93 92 94 91 88 87 87 84 76 73 74 72 68 70 71 70 72 72 73 75 75 75 75 72 69 70 70 69 71 69 68 67 64
62 63 57 49 59 67 79 95 94 93 93 88 86 92 91 86 83 79 76 73 71 70 68 67 66 64 64 65 67 73 75 76 76 75 76 76 71 70 70 69 67 66 60
61 55 60 47 38 53 57 69 88 91 87 85 85 85 88 86 80 78 77 73 70 67 66 65 63 59 59 60 64 67 67 72 73 70 74 73 76 72 71 74 69 67 76
44 56 55 62 52 38 50 57 68 84 87 87 84 81 84 86 82 80 75 70 68 69 66 62 59 57 57 60 63 63 62 62 64 65 69 70 68 70 69 75 75 76 80
40 34 38 45 59 52 43 48 59 67 73 75 77 77 78 81 82 79 74 69 66 65 65 62 60 59 59 59 60 59 60 64 67 67 65 64 63 63 70 69 77 74 76
29 24 31 39 49 52 48 45 44 51 61 61 63 66 69 72 73 72 69 67 65 65 63 62 63 62 61 59 57 59 64 62 65 61 60 58 60 61 65 73 76 71 78
34 29 26 32 43 47 46 45 45 47 50 51 52 55 56 56 58 62 66 68 68 66 66 64 62 61 59 56 54 62 59 62 58 55 55 54 58 59 59 61 65 72 68
45 40 39 39 39 42 41 43 39 39 44 47 50 51 50 53 57 61 63 65 66 66 65 63 59 55 54 55 56 58 58 56 56 58 57 58 58 56 57 61 65 64 67
61 47 44 39 36 36 37 37 37 36 38 39 37 39 42 44 47 51 55 58 61 63 63 63 60 55 48 53 53 53 55 57 56 58 56 58 58 55 63 57 62 64 63
63 52 45 35 26 25 29 32 33 35 35 35 35 36 37 38 39 41 43 44 44 44 46 50 51 46 49 49 54 52 57 53 54 57 53 55 55 55 55 61 62 64 69
54 51 45 30 20 21 24 30 32 31 30 28 28 28 28 30 32 32 32 32 34 35 37 39 40 43 48 52 51 50 52 55 57 50 51 52 52 52 54 55 60 57 57
79 52 39 39 26 26 31 34 34 32 27 22 20 20 23 26 29 28 29 31 32 32 33 34 38 43 47 51 53 57 59 55 49 50 50 50 51 47 48 53 56 55 55
75 72 54 51 45 43 43 40 35 33 29 26 25 27 28 32 35 36 37 39 39 37 39 40 41 43 43 44 47 47 47 48 48 50 44 37 35 37 41 46 54 52 43
74 77 66 66 52 49 51 47 44 41 37 35 38 42 46 48 47 44 45 44 44 44 44 43 42 41 38 35 32 31 30 29 27 23 19 25 29 34 37 39 40 45 46
63 67 65 68 65 54 53 53 51 49 48 48 51 54 52 47 44 42 42 41 40 40 37 35 34 31 29 29 27 25 24 24 25 24 29 32 32 35 37 37 37 39 39
58 56 54 58 59 57 57 58 56 52 53 55 53 50 47 44 41 40 39 38 37 35 33 29 27 25 25 24 18 16 20 21 24 24 27 26 26 27 31 28 30 32 31
42 43 45 48 47 46 47 51 51 52 51 49 47 44 41 37 34 33 32 32 30 27 23 19 17 17 15 13 17 18 19 20 22 21 22 18 18 19 23 21 22 26 28
32 36 39 42 42 41 39 40 41 42 41 40 36 31 28 27 28 26 24 20 17 15 18 17 17 16 15 15 16 17 18 19 17 17 16 16 16 17 19 19 20 22 22
24 26 29 30 31 30 29 30 30 29 29 29 26 24 24 24 22 21 22 20 12 12 10 11 11 11 10 10 11 11 11 11 12 15 14 11 12 12 15 14 15 15 15
Wind_Direction_850mb
255 252 246 243 244 243 241 239 236 234 233 233 233 235 236 235 235 236 236 236 238 239 240 241 241 242 246 250 252 252 253 252 250 253 258 269 271 274 274 268 260 252 253
262 253 250 249 245 245 245 242 240 237 236 236 237 237 239 239 240 241 240 239 238 239 240 243 244 245 249 250 250 251 252 251 244 252 258 267 266 269 272 269 256 256 256
258 258 253 250 249 246 243 243 243 240 239 239 238 239 241 243 242 240 240 239 240 242 243 244 246 245 248 251 253 253 253 254 249 247 246 249 250 273 256 253 261 252 260
250 255 252 251 250 248 247 245 245 243 242 239 240 239 240 240 241 242 242 242 241 243 245 247 248 248 248 251 253 253 253 253 250 249 248 246 253 266 274 266 268 266 268
243 249 251 247 248 251 249 245 244 244 244 242 241 242 242 246 249 250 249 248 246 246 248 247 249 250 250 251 252 251 251 252 252 248 248 246 252 255 260 267 270 271 271
242 247 251 250 252 249 249 246 243 243 244 243 242 242 244 245 246 248 250 251 250 249 248 248 249 250 252 251 253 254 253 252 252 250 247 245 246 253 256 260 264 270 273
252 250 251 253 249 243 243 244 243 243 243 242 241 242 244 244 247 250 251 252 252 249 247 246 246 249 250 252 253 254 253 252 252 252 250 249 248 251 257 264 268 268 273
257 252 256 253 252 244 242 241 240 242 242 243 241 240 244 246 247 249 251 252 253 254 253 250 250 252 253 255 256 257 258 255 253 253 253 254 251 252 255 259 264 269 270
257 251 250 257 250 246 243 240 238 239 242 242 241 240 241 243 246 248 250 252 253 254 255 254 254 253 253 256 258 258 259 259 257 255 255 255 256 256 257 258 260 266 261
268 265 244 246 253 246 243 238 237 238 240 242 243 243 242 243 245 248 250 252 254 255 255 255 254 253 254 255 255 257 258 259 259 258 259 258 259 259 260 257 253 255 264
281 271 261 239 245 251 240 235 232 234 236 239 241 243 242 243 245 248 252 254 255 257 258 259 256 254 253 255 257 260 263 265 265 262 260 262 261 263 262 265 260 253 255
289 284 256 245 240 237 241 238 233 234 236 241 243 243 244 245 247 249 251 254 258 259 260 259 257 255 254 255 258 262 266 264 266 266 263 262 265 263 263 260 267 265 266
312 294 254 253 239 234 235 234 239 241 233 233 237 238 240 244 246 249 250 255 257 258 258 258 257 256 256 256 253 259 261 262 262 263 265 263 259 261 261 262 264 271 267
308 299 280 264 250 242 237 237 242 234 225 229 233 234 236 238 241 244 248 253 256 258 258 258 258 258 257 254 257 256 259 260 259 261 262 260 261 261 265 266 267 266 271
311 298 284 270 254 241 229 224 222 221 220 223 228 231 235 238 242 244 247 252 255 257 259 261 261 259 256 252 251 256 255 255 255 257 258 261 263 265 264 264 265 266 269
298 299 284 273 259 245 227 216 216 217 218 221 225 228 231 233 238 244 249 252 255 257 256 254 253 251 247 249 247 251 249 251 253 253 259 261 263 262 266 265 270 272 272
284 290 285 264 244 227 213 210 207 205 207 210 212 219 227 234 238 241 244 247 250 251 250 248 246 243 240 241 246 245 250 253 257 261 261 257 261 265 267 269 271 267 270
280 288 284 248 228 217 207 199 200 199 201 205 214 224 231 236 237 239 243 246 246 246 246 244 244 242 241 243 243 244 246 250 256 255 258 259 260 261 264 266 269 269 273
266 273 283 248 234 233 221 214 206 205 205 211 221 228 233 237 242 243 244 246 247 245 242 238 235 234 235 238 241 244 247 248 248 250 254 259 260 264 266 268 268 265 272
265 269 265 241 242 242 232 226 224 225 219 223 234 242 250 256 254 248 244 241 238 235 233 233 232 236 239 240 244 249 253 257 257 258 258 254 257 262 265 268 271 278 272
258 259 255 249 246 241 234 229 229 229 231 232 240 242 244 245 246 246 245 243 241 238 240 238 239 241 244 244 251 255 254 251 246 244 243 247 249 253 259 263 269 271 270
263 255 248 244 246 235 232 232 234 235 234 238 240 240 244 247 251 252 251 249 249 248 249 251 252 249 240 245 245 242 245 251 252 249 252 252 260 264 265 267 273 279 279
261 252 241 230 227 228 229 230 231 231 236 238 238 242 245 247 248 249 245 243 243 242 244 244 241 234 229 233 234 233 250 259 268 273 269 276 278 281 281 285 288 289 292
241 235 228 221 220 221 222 226 228 233 235 237 238 238 239 238 232 228 229 235 237 237 233 227 216 215 225 233 219 231 241 245 253 255 264 264 275 281 284 288 292 301 305
238 232 232 221 216 220 222 225 226 229 232 233 228 223 219 216 211 207 209 212 213 207 188 187 198 209 218 228 238 241 241 243 244 257 258 269 274 279 284 291 294 292 294
234 231 230 231 219 221 228 230 232 231 225 219 214 206 201 193 186 186 168 148 152 155 162 177 194 206 208 214 219 230 235 249 269 273 280 289 288 291 297 306 311 308 312